Regional Weather Roundup
Issued by NWS

Home | Current Version | Previous Version | Graphics & Text | Print | Product List | Glossary On
Versions: 1 2 3 4 5 6 7 8 9 10 11 12 13 14 15 16 17 18 19 20 21 22 23 24 25 26 27 28 29 30 31
000
ASUS45 KGTF 170210
RWRMT
MONTANA HOURLY WEATHER ROUNDUP
NATIONAL WEATHER SERVICE GREAT FALLS MT
800 PM MDT THU APR 16 2015

NOTE: "FAIR" INDICATES FEW OR NO CLOUDS BELOW 12000 FEET WITH NO
SIGNIFICANT WEATHER AND/OR OBSTRUCTIONS TO VISIBILITY.

MTZ001>007-043-170300-
WEST OF THE DIVIDE

CITY           SKY/WX    TMP DP  RH WIND       PRES   REMARKS
KALISPELL      PTCLDY    56  29  35 S10       30.16F
MISSOULA       CLEAR     58  26  29 N8        30.16F
BUTTE          CLEAR     52  14  22 W8        30.18S
DEER LODGE       N/A     50  23  34 NW7       30.21R
EUREKA           N/A     61  28  29 SW5       30.15S
HAMILTON         N/A     57  28  33 NW5       30.16S
LIBBY            N/A     61  27  27 CALM      30.18R
$$

MTZ008-052>055-170300-
SOUTHWEST MONTANA

CITY           SKY/WX    TMP DP  RH WIND       PRES   REMARKS
BOZEMAN        CLEAR     41  31  67 SE7       30.21S
DILLON         CLEAR     50  25  37 CALM      30.17F
$$

MTZ009-010-012-014-046-048-049-054-170300-
EAST SLOPES AND CENTRAL MONTANA

CITY           SKY/WX    TMP DP  RH WIND       PRES   REMARKS
CUT BANK       PTCLDY    54  27  35 W15       30.10R
GREAT FALLS    CLEAR     55  24  30 S9        30.10F
MALMSTROM AFB  CLEAR     52  28  40 S8        30.11S
HELENA         CLEAR     55  26  32 E9        30.14S
$$

MTZ011-013-016-021-045-047-050-051-170300-
NORTH CENTRAL MONTANA

CITY           SKY/WX    TMP DP  RH WIND       PRES   REMARKS
HAVRE          CLEAR     54  27  35 S9        30.09F
LEWISTOWN      CLEAR     54  28  36 CALM      30.16S
FORT BENTON      N/A     61  25  25 SE5       30.11S
$$

MTZ017>020-022>042-056>058-061-062-170300-
EASTERN PLAINS

CITY           SKY/WX    TMP DP  RH WIND       PRES   REMARKS
BAKER          CLEAR     49  25  39 SW5       30.20R
BILLINGS       CLEAR     49  28  44 W6        30.21S
GLASGOW        CLEAR     50  18  28 SE10      30.13S
JORDAN           N/A     54  21  27 SW6       30.15S
LIVINGSTON     CLEAR     47  27  45 SW8       30.19R
MILES CITY     CLEAR     51  15  23 SW8       30.19R
SIDNEY         CLEAR     46  19  34 CALM      30.16S
WOLF POINT     CLEAR     58  15  18 SW3       30.15S
BIG TIMBER       N/A     48  28  46 E6        30.20R
FORSYTH          N/A     55  21  26 CALM      30.20R
PLENTYWOOD       N/A     57  18  21 S3        30.13R
POPLAR           N/A     55  16  21 SW5       30.16R
$$

REGIONAL REPORTS...DAKOTAS

CITY           SKY/WX    TMP DP  RH WIND       PRES   REMARKS
WILLISTON      CLEAR     47  19  33 NW3       30.14S
MINOT          CLEAR     47  22  37 NW8       30.13R
DICKINSON      CLEAR     52  19  27 NE3       30.16R
BEACH          FAIR      46  19  34 SW3       30.19R
CROSBY         FAIR      46  25  42 SW7       30.14R
WATFORD CITY   FAIR      48  14  25 SW3       30.14R HAZE
BISMARCK       CLEAR     56  18  22 N5        30.16R
GRAND FORKS    PTCLDY    48  25  40 NW6       30.08S
FARGO          CLEAR     56  30  37 N12       30.07R
BUFFALO SD       N/A     54  23  30 E5        30.14R
RAPID CITY     MOCLDY    47  33  58 NW9       30.17S
$$

REGIONAL REPORTS...WYOMING/IDAHO/WASHINGTON

CITY           SKY/WX    TMP DP  RH WIND       PRES   REMARKS
GILLETTE       PTCLDY    42  28  57 N6        30.22R
SHERIDAN       CLEAR     38  30  73 SW5       30.24R
BUFFALO WY     PTCLDY    43  25  49 NW3       30.25R
CODY           CLEAR     41  28  60 SW9       30.24R
YELLOWSTONE LA   N/A     34  23  64 CALM      30.23R
IDAHO FALLS    CLEAR     56  26  31 N12       30.12R
SALMON         CLEAR     55  25  30 CALM      30.11S
BOISE          CLEAR     61  28  28 NW10      30.12S
SPOKANE        PTCLDY    60  28  29 W7        30.21S
$$

REGIONAL REPORTS...ALBERTA

CITY           SKY/WX    TMP DP  RH WIND       PRES   REMARKS
EDMONTON       CLEAR     52  34  50 N13       30.02R
CALGARY        PTCLDY    61  21  21 W13       30.05R
LETHBRIDGE     MOCLDY    59  25  27 W18G25    30.04R
MEDICINE HAT   MOCLDY    63  28  27 SW9       30.01S
$$

REGIONAL REPORTS...SASKATCHEWAN

CITY           SKY/WX    TMP DP  RH WIND       PRES   REMARKS
SWIFT CURRENT  MOCLDY    54  23  30 SW10      30.03S
REGINA         MOCLDY    52  30  43 S7        30.08S
SASKATOON      PTCLDY    57  25  28 SW12      29.97F
$$



USA.gov is the U.S. government's official web portal to all federal, state and local government web resources and services.